www.pogodaiklimat.ru

Архив погоды в Худжанде (Таджикистан)

Время
(UTC), дата
00 10.05
03 10.05
06 10.05
09 10.05
12 10.05
15 10.05
18 10.05
21 10.05
00 11.05
03 11.05
06 11.05
09 11.05
12 11.05
15 11.05
18 11.05
21 11.05
00 12.05
03 12.05
06 12.05
09 12.05
12 12.05
15 12.05
18 12.05
21 12.05
00 13.05
03 13.05
06 13.05
09 13.05
12 13.05
15 13.05
18 13.05
21 13.05
00 14.05
03 14.05
06 14.05
09 14.05
12 14.05
15 14.05
18 14.05
21 14.05
00 15.05
03 15.05
06 15.05
09 15.05
12 15.05
15 15.05
18 15.05
21 15.05
00 16.05
03 16.05
06 16.05
09 16.05
12 16.05
15 16.05
18 16.05
Ветер
(напр.,м/с)
Видим. Явления Облачность Т
(С)
Тd
(С)
f
(%)
Тe
(С)
Тes
(С)
Комфортность P
(гПа)
Po
(гПа)
Тmin
(С)
Tmax
(С)
R
(мм)
R24
(мм)
S
(см)
З 8
{15}
20 км 10/3 2000 м
[Cb cap Ac trans Ci fib]
+21.9 +14.0 61 +25 +25 комфорт 1010.3 962.1
ЮЗ 9
{18}
20 км {ливн. дождь} 10/4 1500 м
[Cb cap Ac trans Ci sp]
+19.1 +13.1 68 +19 +20 по сезону 1013.8 965.0 +19.1 0.3
ЮЗ 6
{15}
20 км {ливн. дождь} 10/5 1500 м
[Cb cap Ac und]
+19.9 +12.4 62 +21 +22 комфорт 1015.3 966.5 +19.1 0.3
З 2 20 км слаб. ливневой дождь 10/4 1500 м
[Cb cap Ac und]
+19.4 +14.0 71 +22 +25 комфорт 1014.7 965.9
З 5 20 км {ливн. дождь} 10/3 1500 м
[Cb cap Ac As Ci sp]
+22.8 +10.6 46 +25 +26 комфорт 1013.1 964.8
ЮЗ 7 20 км 3/0
[Ac trans]
+19.6 +13.8 69 +21 +21 комфорт 1014.5 965.7 +24.4 0.4
ЮЗ 5 20 км ясно +17.9 +14.2 79 +17 +17 по сезону 1015.7 966.6 +24.4 0.4
З 1 20 км 8/0
[Ac trans]
+17.6 +14.9 84 +19 +19 тепло 1016.0 966.9
З 4 4000 м дымка {ливн. дождь} 10/6 1500 м
[Cb cap Ac und]
+17.2 +15.5 90 +17 +17 тепло 1016.1 966.9
З 6 10 км 10/3 1500 м
[Cb cap Ac und]
+18.5 +15.4 82 +19 +19 по сезону 1017.3 968.2 +17.1 0.6
З 5 10 км 10/1
[Cb cap Ac trans Ci fib]
+23.3 +14.3 57 +27 +31 душно 1015.6 967.4 +17.1 0.6
ЮЗ 7 20 км 8/3 1500 м
[Cb cap Ac trans Ci fib]
+26.8 +12.1 40 +28 +30 жарко 1013.0 965.4
З 4 20 км слаб. ливневой дождь {гроза} 10/4 1500 м
[Cb cap Ac trans Ci sp]
+21.5 +15.3 68 +25 +26 комфорт 1013.3 964.9
ЮЗ 5 20 км {ливн. дождь} 10/3 1500 м
[Cb cap Ac trans Ci sp]
+21.4 +14.1 63 +24 +24 комфорт 1014.9 966.4 +27.3 0.0
З 3 20 км {ливн. дождь} 6/1 2000 м
[Cb cap Ac trans Ci fib]
+18.7 +14.4 76 +20 +20 тепло 1014.7 965.8 +27.3 0.0
штиль 0 20 км 3/0
[Ac trans]
+16.8 +13.5 81 +17 +17 по сезону 1014.4 965.2
В 2 20 км 3/0
[Ac trans]
+15.5 +12.8 84 +15 +15 по сезону 1015.2 965.7
В 8 20 км ясно +20.8 +15.1 70 +23 +25 комфорт 1014.0 965.5 +15.5
В 6 20 км ясно +25.4 +9.3 36 +26 +33 жарко 1012.6 964.8 +15.5
З 2 20 км 4/0
[Ac trans Ci fib]
+29.2 +8.8 28 +29 +44 жарко 1010.2 963.0
ЮЗ 5 20 км 10/3 2000 м
[Cb cap Ac trans Ci fib]
+28.4 +10.6 33 +29 +30 жарко 1009.4 962.2
З 8
{15}
10 км 10/3 1500 м
[Cb cap Ac trans Ci fib]
+23.7 +5.9 32 +24 +24 комфорт 1011.6 963.5 +30.3
Ю 3
{20}
10 км {ливн. дождь} 10/3 1500 м
[Cb cap Ac und]
+20.2 +9.2 49 +22 +22 комфорт 1011.8 963.2 +30.3
Ю 2 10 км 10/3 1500 м
[Cb cap Ac und]
+16.9 +10.5 66 +17 +17 по сезону 1010.3 961.2
В 3 10 км 1/0 1500 м
[Ac trans]
+15.7 +9.2 65 +15 +15 по сезону 1011.5 962.1
В 7 20 км 9/0
[Ci fib]
+21.8 +11.2 51 +24 +25 комфорт 1011.4 963.1 +14.6 0.3
В 7 20 км 10/0
[Ac trans Ci fib]
+26.1 +8.1 32 +26 +29 жарко 1009.7 962.1 +14.6 0.3
З 7 20 км слаб. ливневой дождь 10/3 1500 м
[Cb cap Ac trans Ci fib]
+24.5 +9.7 39 +25 +27 комфорт 1010.5 962.6
З 7
{16}
70 км {ливн. дождь} 10/1 2000 м
[Cb cap Ac trans Ci fib]
+23.1 +12.7 52 +26 +27 жарко 1011.3 963.2
З 1 20 км в посл. час ливневой дождь 10/3 2000 м
[Cb cap Ac trans Ci fib]
+20.8 +11.7 56 +24 +24 комфорт 1011.7 963.2 +28.8 0.0
ЮЗ 3 20 км {ливн. дождь} 6/0
[Ci fib]
+16.1 +12.3 78 +16 +16 прохладно 1012.2 962.9 +28.8 0.0
ЮЗ 3 20 км слаб. ливневой дождь 10/3 2000 м
[Cb cap Ac trans Ci sp]
+17.6 +12.3 71 +18 +18 тепло 1011.3 962.3
З 4 10 км слаб. ливневой дождь 10/4 1500 м
[Cb cap Ac und]
+17.0 +13.7 81 +17 +17 тепло 1012.9 963.8
З 6 20 км слаб. ливневой дождь 10/5 1500 м
[Cb cap Ac und]
+16.4 +14.4 88 +15 +16 холодно 1014.5 965.2 +16.1 1
З 7 4000 м слаб. ливневой дождь 10/10 150 м
[Cb cap]
+15.6 +14.6 94 +14 +14 очень
холодно
1016.7 967.2 +16.1 1
З 5 10 км слаб. ливневой дождь 10/10 1500 м +15.5 +14.0 91 +14 +14 очень
холодно
1017.7 968.1
З 2 10 км слаб. ливневой дождь 10/6 1320 м
[Cb cap Ac und]
+16.6 +14.3 86 +17 +17 очень
холодно
1019.3 969.8
Ю 1 10 км слаб. ливневой дождь 10/5 1500 м
[Cb cap Ac und]
+16.2 +14.9 92 +17 +17 холодно 1019.7 970.1 +17.0 14
З 2 4000 м дымка {ливн. дождь} 8/3 1500 м
[Cb cap Ac trans]
+14.5 +13.5 94 +14 +14 холодно 1019.3 969.4 +17.0 14
Ю 1 10 км 10/1 1500 м
[Cb cap Ac trans Ci fib]
+13.8 +12.4 91 +14 +14 прохладно 1019.8 969.8
В 3 2100 м дымка 10/3 570 м
[St Ac trans Ci fib]
+14.6 +13.6 94 +14 +14 по сезону 1018.9 969.1
В 4 4000 м дымка 5/1 200 м
[St Ci fib]
+17.1 +14.6 85 +17 +20 прохладно 1019.0 969.6 +13.4 0.3
В 5 4000 м 8/0 1000 м
[Ci fib]
+19.9 +12.9 64 +22 +29 комфорт 1018.2 969.3 +13.4
В 6 20 км 8/1 1500 м
[Cb cap Ci fib]
+22.1 +14.0 60 +25 +30 комфорт 1015.5 967.1
В 6 20 км 3/1 1500 м
[Cb cap Ci fib]
+23.5 +7.2 35 +24 +26 комфорт 1013.5 965.4
В 1 10 км 1/0
[Ac trans]
+19.4 +13.1 67 +22 +22 комфорт 1014.8 966.0 +24.0
СВ 3 10 км ясно +17.1 +13.4 79 +17 +17 по сезону 1015.3 966.1 +24.0
В 4 4000 м дымка ясно +17.1 +13.6 80 +17 +17 по сезону 1014.2 965.0
В 2 4000 м дымка ясно +15.3 +12.6 84 +15 +15 по сезону 1014.6 965.1
СВ 6 4000 м дымка ясно +19.9 +14.0 69 +22 +24 комфорт 1014.3 965.6 +15.3
СВ 5 10 км 4/0
[Ci fib]
+24.2 +12.2 47 +26 +35 жарко 1012.9 964.9 +15.3
В 4 20 км 5/1 1000 м
[Cu hum Ci fib]
+27.5 +9.8 33 +28 +37 жарко 1010.1 962.7
В 2 20 км 5/0
[Ac trans Ci fib]
+28.7 +8.9 29 +28 +33 жарко 1008.4 961.3
В 3 20 км 5/0
[Ac trans]
+24.3 +12.3 47 +26 +26 жарко 1008.6 960.8 +29.3
ЮЗ 1 20 км ясно +19.3 +14.8 75 +22 +22 комфорт 1008.6 960.1 +29.3
Местоположение метеостанции Худжанд (Таджикистан): широта 40.22 долгота 69.73 высота над уровнем моря 427 м.
В архиве по умолчанию представлена погода в Худжанде за последнюю неделю. Архивные данные за месяц целиком и за предыдущие месяцы, начиная с января 2011 года, Вы можете получить, выбрав интересующий диапазон дат из раскрывающегося списка и нажав кнопку "Найти!".
*Определитесь, кто Вы:
Внимание! Время в таблицах - всемирное. Для получения местного времени необходимо прибавить поправку, которая равна 5 ч.
Смотрите также архив погоды в соседних городах и на ближайших метеорологических станциях:
Партнеры нашего сайта:      
Пояснения к столбцам:
  • Ветер - указаны скорость ветра в м/с - средняя за 10 мин, порывы в срок и между сроками (в фигурных скобках) и направление, откуда дует ветер: С - северный,
  • СВ - северо-восточный, В - восточный, ЮВ - юго-восточный, Ю - южный, ЮЗ - юго-западный, З - западный, СЗ - северо-западный.
  • Видимость - горизонтальная дальность видимости в метрах или километрах. При видимости от 1 до 10 км при отсутствии осадков обычно наблюдается дымка, при ухудшении видимости до 1 км и менее - туман. В сухую погоду видимость может ухудшаться дымом, пылью или мглою.
  • Явления - указаны атмосферные явления, наблюдавшиеся в срок или в последний час перед сроком; фигурными скобками обозначены явления, наблюдавшиеся между сроками (за 1-3 часа до срока); квадратными скобками обозначены град или гололедные отложения с указанием их диаметра в мм.
  • Облачность - указаны через наклонную черту общая и нижняя облачность в баллах и высота нижней границы облаков в метрах; квадратными скобками обозначены формы облаков: Ci - перистые, Cs - перисто-слоистые, Cc - перисто-кучевые, Ac - высококучевые, As - высокослоистые, Sc - слоисто-кучевые, Ns - слоисто-дождевые, Cu - кучевые, Cb - кучево-дождевые. Подробнее классификацию облаков см. в Атласе облаков (PDF).
  • T - Температура воздуха - температура, измеренная на высоте 2 м над землей.
  • Td - Температура точки росы - температура, при понижении до которой содержащийся в воздухе водяной пар достигнет насыщения.
  • f - Относительная влажность воздуха - влажноcть воздуха, измеренная на высоте 2 м над землей.
  • Te - Эффективная температура - температура, которую ощущает одетый по сезону человек в тени. Характеристика душности погоды. При расчете учитывается влияние влажности воздуха и скорости ветра на теплоощущения человека.
  • Tes - Эффективная температура на солнце - температура, которую ощущает человек, с поправкой на солнечный нагрев. Характеристика знойности погоды. Зависит от высоты солнца над горизонтом, облачности и скорости ветра. Ночью, в пасмурную погоду, а также при ветре 12 м/с и более поправка равна нулю.
  • P - Атмосферное давление - приведенное к уровню моря атмосферное давление.
  • Po - Атмосферное давление - измеренное на уровне метеостанции атмосферное давление.
  • Tmin - Минимальная температура - минимум температуры воздуха на высоте 2 м над землей.
  • Tmax - Максимальная температура - максимум температуры воздуха на высоте 2 м над землей.
  • R - Количество осадков - Количество выпавших осадков за период времени, мм. При наведении курсора мыши на число - период времени, за который выпало указанное количество осадков.
  • R24 - Количество осадков - Количество выпавших осадков за 24 часа, мм.
  • S - Снежный покров - Высота снежного покрова, см. При наведении курсора мыши на число - состояние снежного покрова и степень покрытия местности в баллах.